Lincoln County, Oregon, United States
Lat: 44.65N, Lon: 123.85W
Wx Zone: ORZ004
Local Info
Past Weather Observations for Friday, September 19, 2014

NOTE: This archive is for the closest National Weather Service station to Lincoln County. Information may differ from the station used for current weather conditions.

Click here for Long-term Archive

Time Weather Temperature Dewpoint Humidity Pressure Winds Precip Visibility
23:55
Clear
54°F / 12°C 52°F / 11°C 94% 30.04 in
(1017 mb)
Calm - 10SM
23:35
Clear
54°F / 12°C 52°F / 11°C 94% 30.06 in
(1018 mb)
Calm - 7SM
23:15
Clear
Fog And Mist
52°F / 11°C 52°F / 11°C 100% 30.06 in
(1018 mb)
Calm - 4SM
22:55
Clear
Fog And Mist
54°F / 12°C 52°F / 11°C 94% 30.06 in
(1018 mb)
Calm - 3SM
22:35
Clear
Fog And Mist
54°F / 12°C 52°F / 11°C 94% 30.06 in
(1018 mb)
Calm - 3SM
22:15
Clear
54°F / 12°C 52°F / 11°C 94% 30.06 in
(1018 mb)
Calm - 7SM
21:55
Clear
54°F / 12°C 52°F / 11°C 94% 30.06 in
(1018 mb)
Calm - 7SM
21:35
Clear
Fog And Mist
55°F / 13°C 54°F / 12°C 94% 30.06 in
(1018 mb)
Calm - 5SM
21:15
Clear
Fog And Mist
55°F / 13°C 55°F / 13°C 100% 30.06 in
(1018 mb)
N 5.8 mph
(N 9 kph)
- 5SM
20:55
Clear
55°F / 13°C 54°F / 12°C 94% 30.06 in
(1018 mb)
Calm - 7SM
20:35
Clear
55°F / 13°C 54°F / 12°C 94% 30.06 in
(1018 mb)
Calm - 10SM
20:15
Clear
55°F / 13°C 54°F / 12°C 94% 30.06 in
(1018 mb)
Calm - 10SM
19:55
Clear
57°F / 14°C 55°F / 13°C 94% 30.06 in
(1018 mb)
Calm - 10SM
19:35
Clear
59°F / 15°C 55°F / 13°C 88% 30.06 in
(1018 mb)
Calm - 10SM
19:15
Clear
61°F / 16°C 57°F / 14°C 88% 30.06 in
(1018 mb)
N 4.6 mph
(N 7 kph)
- 10SM
18:55
Clear
61°F / 16°C 57°F / 14°C 88% 30.06 in
(1018 mb)
NNW 6.9 mph
(NNW 11 kph)
- 10SM
18:35
Clear
61°F / 16°C 57°F / 14°C 88% 30.06 in
(1018 mb)
N 5.8 mph
(N 9 kph)
- 10SM
18:15
Clear
63°F / 17°C 57°F / 14°C 83% 30.06 in
(1018 mb)
NNW 8.1 mph
(NNW 13 kph)
- 10SM
17:55
Clear
63°F / 17°C 57°F / 14°C 83% 30.06 in
(1018 mb)
N 9.2 mph
(N 15 kph)
- 10SM
17:35
Clear
63°F / 17°C 59°F / 15°C 88% 30.06 in
(1018 mb)
NNW 12.7 mph
(NNW 20 kph)
- 10SM
17:15
Clear
63°F / 17°C 59°F / 15°C 88% 30.06 in
(1018 mb)
N 15 mph
(N 24 kph)
- 10SM
16:55
Clear
64°F / 18°C 57°F / 14°C 78% 30.06 in
(1018 mb)
N 12.7 mph
(N 20 kph)
- 10SM
16:35
Clear
64°F / 18°C 57°F / 14°C 78% 30.06 in
(1018 mb)
NNW 18.4 mph
(NNW 30 kph)
- 7SM
16:15
Clear
64°F / 18°C 59°F / 15°C 83% 30.06 in
(1018 mb)
NNW 18.4 mph
(NNW 30 kph)
- 7SM
15:55
Clear
64°F / 18°C 59°F / 15°C 83% 30.06 in
(1018 mb)
NNW 17.3 mph
(NNW 28 kph)
- 10SM
15:35
Clear
66°F / 19°C 59°F / 15°C 78% 30.06 in
(1018 mb)
N 16.1 mph
(N 26 kph)
- 10SM
15:15
Clear
66°F / 19°C 59°F / 15°C 78% 30.09 in
(1019 mb)
NNW 17.3 mph
(NNW 28 kph)
- 10SM
14:55
Clear
66°F / 19°C 59°F / 15°C 78% 30.09 in
(1019 mb)
N 15 mph
(N 24 kph)
- 10SM
14:35
Clear
Hazy
68°F / 20°C 59°F / 15°C 73% 30.09 in
(1019 mb)
NNW 16.1 mph
(NNW 26 kph)
- 2 1/2SM
14:15
Clear
Hazy
68°F / 20°C 59°F / 15°C 73% 30.09 in
(1019 mb)
N 16.1 mph
(N 26 kph)
- 5SM
13:55
Clear
68°F / 20°C 59°F / 15°C 73% 30.09 in
(1019 mb)
NNW 13.8 mph
(NNW 22 kph)
- 7SM
13:35
Clear
68°F / 20°C 59°F / 15°C 73% 30.09 in
(1019 mb)
NNW 13.8 mph
(NNW 22 kph)
- 10SM
13:15
Clear
66°F / 19°C 59°F / 15°C 78% 30.09 in
(1019 mb)
NNW 12.7 mph
(NNW 20 kph)
- 7SM
12:55
Clear
66°F / 19°C 59°F / 15°C 78% 30.12 in
(1020 mb)
NNW 11.5 mph
(NNW 19 kph)
- 10SM
12:35
Clear
66°F / 19°C 59°F / 15°C 78% 30.12 in
(1020 mb)
NNW 12.7 mph
(NNW 20 kph)
- 10SM
12:15
Clear
Hazy
66°F / 19°C 59°F / 15°C 78% 30.12 in
(1020 mb)
NNW 13.8 mph
(NNW 22 kph)
- 5SM
11:55
Clear
66°F / 19°C 59°F / 15°C 78% 30.12 in
(1020 mb)
NNW 12.7 mph
(NNW 20 kph)
- 10SM
11:35
Clear
68°F / 20°C 59°F / 15°C 73% 30.12 in
(1020 mb)
NNW 10.4 mph
(NNW 17 kph)
- 10SM
11:15
Clear
66°F / 19°C 59°F / 15°C 78% 30.12 in
(1020 mb)
NNW 10.4 mph
(NNW 17 kph)
- 10SM
10:55
Clear
68°F / 20°C 59°F / 15°C 73% 30.12 in
(1020 mb)
NNW 11.5 mph
(NNW 19 kph)
- 10SM
10:35
Clear
68°F / 20°C 59°F / 15°C 73% 30.12 in
(1020 mb)
NW 6.9 mph
(NW 11 kph)
- 10SM
10:15
Clear
Hazy
68°F / 20°C 59°F / 15°C 73% 30.12 in
(1020 mb)
NNW 5.8 mph
(NNW 9 kph)
- 5SM
09:55
Clear
68°F / 20°C 59°F / 15°C 73% 30.12 in
(1020 mb)
N 4.6 mph
(N 7 kph)
- 10SM
09:35
Clear
64°F / 18°C 59°F / 15°C 83% 30.12 in
(1020 mb)
N 4.6 mph
(N 7 kph)
- 10SM
09:15
Clear
64°F / 18°C 59°F / 15°C 83% 30.12 in
(1020 mb)
N 5.8 mph
(N 9 kph)
- 10SM
08:55
Clear
63°F / 17°C 59°F / 15°C 88% 30.12 in
(1020 mb)
NE 3.5 mph
(NE 6 kph)
- 7SM
08:35
Clear
61°F / 16°C 59°F / 15°C 94% 30.12 in
(1020 mb)
E 4.6 mph
(E 7 kph)
- 7SM
08:15
Partly Cloudy
Fog And Mist
59°F / 15°C 57°F / 14°C 94% 30.12 in
(1020 mb)
Calm - 5SM
07:55
Overcast
Fog
55°F / 13°C 55°F / 13°C 100% 30.12 in
(1020 mb)
E 3.5 mph
(E 6 kph)
- 1/2SM
07:35
Overcast
Fog
55°F / 13°C 55°F / 13°C 100% 30.12 in
(1020 mb)
E 5.8 mph
(E 9 kph)
- 1/2SM
07:15
Mostly Cloudy
Fog And Mist
55°F / 13°C 55°F / 13°C 100% 30.12 in
(1020 mb)
E 6.9 mph
(E 11 kph)
- 3SM
06:55
Partly Cloudy
Fog And Mist
55°F / 13°C 54°F / 12°C 94% 30.12 in
(1020 mb)
Calm - 5SM
06:35
Overcast
Fog And Mist
55°F / 13°C 54°F / 12°C 94% 30.12 in
(1020 mb)
E 6.9 mph
(E 11 kph)
- 5SM
06:15
Overcast
Fog And Mist
55°F / 13°C 55°F / 13°C 100% 30.09 in
(1019 mb)
E 3.5 mph
(E 6 kph)
- 5SM
05:55
Overcast
55°F / 13°C 55°F / 13°C 100% 30.09 in
(1019 mb)
Calm - 7SM
05:35
Overcast
55°F / 13°C 55°F / 13°C 100% 30.09 in
(1019 mb)
E 4.6 mph
(E 7 kph)
- 10SM
05:15
Overcast
55°F / 13°C 55°F / 13°C 100% 30.09 in
(1019 mb)
E 3.5 mph
(E 6 kph)
- 10SM
04:55
Overcast
55°F / 13°C 55°F / 13°C 100% 30.09 in
(1019 mb)
E 3.5 mph
(E 6 kph)
- 10SM
04:35
Overcast
55°F / 13°C 54°F / 12°C 94% 30.09 in
(1019 mb)
E 4.6 mph
(E 7 kph)
- 10SM
04:15
Partly Cloudy
54°F / 12°C 54°F / 12°C 100% 30.09 in
(1019 mb)
Calm - 10SM
03:55
Clear
Fog And Mist
54°F / 12°C 54°F / 12°C 100% N/A Calm - 5SM
03:35
Clear
Fog And Mist
55°F / 13°C 54°F / 12°C 94% 30.06 in
(1018 mb)
Calm - 4SM
03:15
Mostly Cloudy
57°F / 14°C 55°F / 13°C 94% 30.06 in
(1018 mb)
Calm - 10SM
02:55
Overcast
59°F / 15°C 57°F / 14°C 94% 30.06 in
(1018 mb)
Calm - 10SM
02:35
Overcast
59°F / 15°C 59°F / 15°C 100% 30.06 in
(1018 mb)
Calm - 10SM
02:15
Overcast
57°F / 14°C 57°F / 14°C 100% 30.06 in
(1018 mb)
ENE 3.5 mph
(ENE 6 kph)
- 10SM
01:55
Overcast
55°F / 13°C 55°F / 13°C 100% 30.06 in
(1018 mb)
Calm - 10SM
01:35
Overcast
54°F / 12°C 54°F / 12°C 100% 30.06 in
(1018 mb)
Calm - 10SM
01:15
Mostly Cloudy
54°F / 12°C 52°F / 11°C 94% 30.06 in
(1018 mb)
Calm - 10SM
00:55
Clear
Fog And Mist
54°F / 12°C 52°F / 11°C 94% 30.06 in
(1018 mb)
Calm - 3SM
00:35
Clear
54°F / 12°C 54°F / 12°C 100% 30.06 in
(1018 mb)
Calm - 10SM
00:15
Clear
54°F / 12°C 52°F / 11°C 94% 30.06 in
(1018 mb)
Calm - 7SM
Time Weather Temperature Dewpoint Humidity Pressure Winds Precip Visibility


Weather for websites

WeatherForYou.com, LLC is not responsible for any damages or problems caused by this service. Current weather conditions are obtained from the closest station including government and personal stations which may have varying degrees of accuracy. Weather forecasts are derived from the NOAA NDFD. Like all things, this site belongs to Jesus Christ... He just trusts me to maintain it. If you have any questions or comments email webmaster@weatherforyou.com

Copyright © 2014, WeatherForYou.com LLC. All rights reserved.